CEB629 RPLL-RPVD

Flight info

Callsign CEB629
Flight time 1h 2m
Altitude 33000
Route VERDE A461 SAJ W3 IOO B472 NANAS NANAS1W
Aircraft A20N/M-SDE2E3FGHIRWXY/LB1

Departure

Time 2026-04-14 02:30
Airport Ninoy Aquino International Airport (RPLL)

Arrival

Time 2026-04-14 03:33
Airport Sibulan Airport (RPVD)
Time Latitude Longitude Altitude Speed Heading
2026-04-14 02:03 14.51804 121.01371 82 ft 0 kts 46°
2026-04-14 02:18 14.51800 121.01366 82 ft 2 kts 58°
2026-04-14 02:18 14.51791 121.01354 82 ft 2 kts 40°
2026-04-14 02:18 14.51780 121.01344 82 ft 2 kts 46°
2026-04-14 02:18 14.51769 121.01332 82 ft 2 kts 44°
2026-04-14 02:19 14.51758 121.01321 82 ft 2 kts 45°
2026-04-14 02:19 14.51748 121.01311 82 ft 2 kts 45°
2026-04-14 02:19 14.51740 121.01302 82 ft 1 kts 76°
2026-04-14 02:19 14.51741 121.01293 82 ft 0 kts 130°
2026-04-14 02:20 14.51739 121.01296 82 ft 2 kts 126°
2026-04-14 02:20 14.51723 121.01313 82 ft 1 kts 136°
2026-04-14 02:20 14.51719 121.01317 82 ft 0 kts 135°
2026-04-14 02:23 14.51717 121.01319 82 ft 1 kts 137°
2026-04-14 02:24 14.51708 121.01327 82 ft 2 kts 137°
2026-04-14 02:24 14.51689 121.01346 82 ft 5 kts 135°
2026-04-14 02:24 14.51645 121.01392 82 ft 12 kts 135°
2026-04-14 02:24 14.51573 121.01466 82 ft 14 kts 134°
2026-04-14 02:25 14.51504 121.01537 82 ft 12 kts 133°
2026-04-14 02:25 14.51463 121.01580 82 ft 5 kts 136°
2026-04-14 02:25 14.51421 121.01623 82 ft 12 kts 134°
2026-04-14 02:25 14.51357 121.01691 82 ft 13 kts 134°
2026-04-14 02:26 14.51288 121.01762 82 ft 13 kts 135°
2026-04-14 02:26 14.51247 121.01806 82 ft 7 kts 123°
2026-04-14 02:26 14.51212 121.01846 82 ft 8 kts 139°
2026-04-14 02:26 14.51165 121.01889 82 ft 9 kts 134°
2026-04-14 02:27 14.51114 121.01936 82 ft 9 kts 157°
2026-04-14 02:27 14.51070 121.01891 82 ft 10 kts 245°
2026-04-14 02:27 14.51060 121.01870 82 ft 0 kts 242°
2026-04-14 02:27 14.51059 121.01869 82 ft 0 kts 242°
2026-04-14 02:28 14.51059 121.01868 82 ft 0 kts 242°
2026-04-14 02:28 14.51042 121.01838 82 ft 9 kts 239°
2026-04-14 02:28 14.51033 121.01785 82 ft 6 kts 289°
2026-04-14 02:28 14.51048 121.01763 82 ft 0 kts 315°
2026-04-14 02:29 14.51055 121.01757 82 ft 1 kts 319°
2026-04-14 02:29 14.51064 121.01749 82 ft 8 kts 317°
2026-04-14 02:29 14.51296 121.01509 82 ft 84 kts 315°
2026-04-14 02:30 14.51875 121.00908 82 ft 145 kts 317°
2026-04-14 02:30 14.52624 121.00115 476 ft 156 kts 315°
2026-04-14 02:30 14.53384 120.99300 1015 ft 162 kts 316°
2026-04-14 02:30 14.54158 120.98450 1608 ft 164 kts 314°
2026-04-14 02:31 14.54934 120.97587 2092 ft 169 kts 315°
2026-04-14 02:31 14.55771 120.96645 2407 ft 185 kts 312°
2026-04-14 02:31 14.56349 120.95406 2762 ft 202 kts 273°
2026-04-14 02:31 14.55901 120.93989 3084 ft 219 kts 228°
2026-04-14 02:32 14.54547 120.93195 3339 ft 236 kts 185°
2026-04-14 02:32 14.52869 120.93363 3727 ft 251 kts 165°
2026-04-14 02:32 14.51057 120.93662 4171 ft 270 kts 173°
2026-04-14 02:32 14.49155 120.93801 4804 ft 279 kts 175°
2026-04-14 02:33 14.47170 120.93931 5615 ft 282 kts 174°
2026-04-14 02:33 14.45169 120.94080 6331 ft 285 kts 174°
2026-04-14 02:33 14.43189 120.94244 6775 ft 286 kts 173°
2026-04-14 02:34 14.39137 120.94610 6965 ft 286 kts 173°
2026-04-14 02:34 14.37117 120.94800 6952 ft 286 kts 173°
2026-04-14 02:34 14.35110 120.94991 6979 ft 288 kts 173°
2026-04-14 02:34 14.33082 120.95186 7408 ft 296 kts 173°
2026-04-14 02:35 14.31038 120.95383 8282 ft 294 kts 173°
2026-04-14 02:35 14.29014 120.95579 9043 ft 294 kts 173°
2026-04-14 02:35 14.26955 120.95779 9747 ft 297 kts 173°
2026-04-14 02:35 14.24890 120.95978 10383 ft 302 kts 173°
2026-04-14 02:36 14.22720 120.96191 10735 ft 317 kts 173°
2026-04-14 02:36 14.20606 120.96397 10996 ft 333 kts 173°
2026-04-14 02:36 14.18224 120.96630 11424 ft 344 kts 173°
2026-04-14 02:36 14.15822 120.96861 12031 ft 347 kts 173°
2026-04-14 02:37 14.13361 120.97098 12673 ft 349 kts 173°
2026-04-14 02:37 14.10909 120.97335 13299 ft 352 kts 173°
2026-04-14 02:37 14.08430 120.97575 13904 ft 355 kts 173°
2026-04-14 02:37 14.05973 120.97811 14478 ft 358 kts 173°
2026-04-14 02:38 14.03468 120.98053 15044 ft 361 kts 173°
2026-04-14 02:38 14.00925 120.98299 15610 ft 365 kts 172°
2026-04-14 02:38 13.98357 120.98547 16153 ft 368 kts 172°
2026-04-14 02:38 13.97042 120.98674 16445 ft 370 kts 172°
2026-04-14 02:39 13.94441 120.98926 16967 ft 373 kts 172°
2026-04-14 02:39 13.91815 120.99181 17505 ft 377 kts 172°
2026-04-14 02:39 13.89175 120.99435 18004 ft 380 kts 172°
2026-04-14 02:39 13.86491 120.99696 18492 ft 384 kts 172°
2026-04-14 02:40 13.83790 120.99956 18961 ft 388 kts 172°
2026-04-14 02:40 13.81044 121.00221 19423 ft 392 kts 172°
2026-04-14 02:40 13.78314 121.00485 19915 ft 395 kts 172°
2026-04-14 02:40 13.75580 121.00748 20395 ft 398 kts 172°
2026-04-14 02:41 13.72785 121.01019 20852 ft 402 kts 172°
2026-04-14 02:41 13.69969 121.01290 21310 ft 405 kts 172°
2026-04-14 02:41 13.67127 121.01564 21769 ft 409 kts 172°
2026-04-14 02:41 13.64233 121.01843 22224 ft 412 kts 172°
2026-04-14 02:42 13.61349 121.02122 22665 ft 416 kts 172°
2026-04-14 02:42 13.60381 121.02216 22820 ft 417 kts 172°
2026-04-14 02:42 13.55481 121.02688 23595 ft 422 kts 172°
2026-04-14 02:42 13.52533 121.02972 24039 ft 424 kts 172°
2026-04-14 02:43 13.49538 121.03178 24479 ft 428 kts 176°
2026-04-14 02:43 13.46548 121.03234 24909 ft 430 kts 177°
2026-04-14 02:43 13.43502 121.03263 25353 ft 432 kts 178°
2026-04-14 02:43 13.40458 121.03288 25783 ft 434 kts 178°
2026-04-14 02:44 13.37445 121.03314 26205 ft 436 kts 178°
2026-04-14 02:44 13.34394 121.03342 26619 ft 438 kts 178°
2026-04-14 02:44 13.31321 121.03372 27022 ft 440 kts 178°
2026-04-14 02:44 13.28260 121.03404 27416 ft 442 kts 177°
2026-04-14 02:45 13.25094 121.03439 27804 ft 444 kts 177°
2026-04-14 02:45 13.21985 121.03471 28155 ft 446 kts 177°
2026-04-14 02:45 13.18867 121.03503 28478 ft 449 kts 177°
2026-04-14 02:46 13.18230 121.03509 28542 ft 450 kts 177°
2026-04-14 02:46 13.15784 121.03534 28789 ft 452 kts 177°
2026-04-14 02:46 13.12618 121.03565 29126 ft 453 kts 177°
2026-04-14 02:46 13.09445 121.03595 29459 ft 454 kts 177°
2026-04-14 02:47 13.06274 121.03625 29804 ft 455 kts 177°
2026-04-14 02:47 13.03102 121.03657 30249 ft 453 kts 177°
2026-04-14 02:47 12.99925 121.03688 30699 ft 450 kts 177°
2026-04-14 02:47 12.96826 121.03719 31097 ft 448 kts 177°
2026-04-14 02:48 12.93646 121.03751 31460 ft 447 kts 177°
2026-04-14 02:48 12.90540 121.03782 31751 ft 448 kts 177°
2026-04-14 02:48 12.87404 121.03812 32024 ft 449 kts 177°
2026-04-14 02:48 12.84247 121.03843 32301 ft 450 kts 177°
2026-04-14 02:49 12.81084 121.03874 32590 ft 450 kts 177°
2026-04-14 02:49 12.77961 121.03904 32899 ft 450 kts 177°
2026-04-14 02:49 12.74793 121.03936 33052 ft 452 kts 176°
2026-04-14 02:50 12.68404 121.04000 33054 ft 451 kts 177°
2026-04-14 02:50 12.62130 121.04062 33029 ft 451 kts 176°
2026-04-14 02:51 12.55843 121.04124 33014 ft 451 kts 176°
2026-04-14 02:51 12.49501 121.04187 32993 ft 451 kts 177°
2026-04-14 02:52 12.43218 121.04369 32971 ft 450 kts 171°
2026-04-14 02:52 12.37134 121.05845 32972 ft 446 kts 156°
2026-04-14 02:53 12.31678 121.08772 32973 ft 441 kts 142°
2026-04-14 02:53 12.27016 121.12837 32960 ft 439 kts 134°
2026-04-14 02:54 12.22581 121.17117 32965 ft 438 kts 134°
2026-04-14 02:54 12.18120 121.21410 32975 ft 439 kts 134°
2026-04-14 02:55 12.13672 121.25671 32974 ft 440 kts 134°
2026-04-14 02:55 12.09199 121.29946 32970 ft 440 kts 134°
2026-04-14 02:56 12.04731 121.34212 32965 ft 439 kts 134°
2026-04-14 02:56 12.00243 121.38497 32956 ft 439 kts 134°
2026-04-14 02:57 11.95776 121.42759 32955 ft 438 kts 134°
2026-04-14 02:57 11.91332 121.46997 32954 ft 438 kts 134°
2026-04-14 02:58 11.86857 121.51265 32957 ft 439 kts 134°
2026-04-14 02:58 11.82357 121.55551 32955 ft 439 kts 134°
2026-04-14 02:59 11.77877 121.59818 32954 ft 440 kts 134°
2026-04-14 02:59 11.73404 121.64078 32951 ft 439 kts 134°
2026-04-14 03:00 11.68926 121.68342 32951 ft 438 kts 134°
2026-04-14 03:00 11.64447 121.72600 32950 ft 438 kts 135°
2026-04-14 03:01 11.59984 121.76839 32947 ft 439 kts 135°
2026-04-14 03:01 11.55506 121.81092 32946 ft 439 kts 135°
2026-04-14 03:02 11.51034 121.85340 32945 ft 440 kts 134°
2026-04-14 03:02 11.46533 121.89610 32945 ft 440 kts 135°
2026-04-14 03:03 11.42047 121.93863 32955 ft 440 kts 135°
2026-04-14 03:03 11.37534 121.98140 32959 ft 440 kts 135°
2026-04-14 03:04 11.33032 122.02407 32955 ft 440 kts 135°
2026-04-14 03:04 11.28525 122.06679 32968 ft 440 kts 135°
2026-04-14 03:05 11.24784 122.10223 32980 ft 440 kts 135°
2026-04-14 03:05 11.20245 122.14521 32996 ft 439 kts 135°
2026-04-14 03:06 11.15753 122.18775 33013 ft 439 kts 135°
2026-04-14 03:06 11.11252 122.23036 33029 ft 439 kts 135°
2026-04-14 03:07 11.06779 122.27266 33037 ft 439 kts 135°
2026-04-14 03:07 11.02271 122.31522 33026 ft 439 kts 135°
2026-04-14 03:08 10.97796 122.35747 33010 ft 439 kts 135°
2026-04-14 03:08 10.93296 122.39996 32989 ft 439 kts 135°
2026-04-14 03:09 10.88793 122.44221 32967 ft 439 kts 136°
2026-04-14 03:09 10.83930 122.48113 32953 ft 441 kts 143°
2026-04-14 03:10 10.78635 122.51421 32943 ft 441 kts 149°
2026-04-14 03:10 10.73056 122.54166 32941 ft 442 kts 153°
2026-04-14 03:11 10.67403 122.56835 32480 ft 447 kts 153°
2026-04-14 03:11 10.64560 122.58178 31487 ft 453 kts 153°
2026-04-14 03:11 10.61659 122.59547 30609 ft 450 kts 152°
2026-04-14 03:11 10.58780 122.60906 29804 ft 447 kts 152°
2026-04-14 03:12 10.55967 122.62235 29067 ft 442 kts 152°
2026-04-14 03:12 10.53206 122.63533 28538 ft 436 kts 152°
2026-04-14 03:12 10.50423 122.64850 28038 ft 432 kts 152°
2026-04-14 03:12 10.47686 122.66148 27561 ft 428 kts 152°
2026-04-14 03:13 10.45001 122.67421 27093 ft 425 kts 152°
2026-04-14 03:13 10.42330 122.68684 26633 ft 421 kts 152°
2026-04-14 03:13 10.39700 122.69928 26179 ft 418 kts 152°
2026-04-14 03:13 10.37064 122.71173 25713 ft 415 kts 152°
2026-04-14 03:14 10.34436 122.72412 25237 ft 412 kts 152°
2026-04-14 03:14 10.31867 122.73623 24772 ft 409 kts 152°
2026-04-14 03:14 10.29250 122.74857 24300 ft 407 kts 152°
2026-04-14 03:14 10.26672 122.76074 23840 ft 404 kts 152°
2026-04-14 03:15 10.24146 122.77268 23380 ft 401 kts 152°
2026-04-14 03:15 10.21607 122.78464 22921 ft 398 kts 152°
2026-04-14 03:15 10.19096 122.79649 22468 ft 395 kts 152°
2026-04-14 03:15 10.16627 122.80812 22035 ft 392 kts 152°
2026-04-14 03:16 10.14156 122.81973 21605 ft 390 kts 152°
2026-04-14 03:16 10.11675 122.83141 21157 ft 387 kts 152°
2026-04-14 03:16 10.09231 122.84293 20703 ft 385 kts 152°
2026-04-14 03:16 10.06815 122.85430 20251 ft 384 kts 152°
2026-04-14 03:17 10.04400 122.86568 19788 ft 382 kts 152°
2026-04-14 03:17 9.99515 122.88871 18860 ft 379 kts 152°
2026-04-14 03:17 9.97107 122.90005 18414 ft 377 kts 152°
2026-04-14 03:18 9.94746 122.91117 17969 ft 375 kts 152°
2026-04-14 03:18 9.92367 122.92236 17526 ft 372 kts 152°
2026-04-14 03:18 9.90006 122.93347 17081 ft 370 kts 152°
2026-04-14 03:18 9.87685 122.94440 16636 ft 368 kts 152°
2026-04-14 03:19 9.85336 122.95545 16176 ft 365 kts 152°
2026-04-14 03:19 9.83007 122.96640 15739 ft 363 kts 152°
2026-04-14 03:19 9.80739 122.97748 15280 ft 360 kts 147°
2026-04-14 03:19 9.78748 122.99233 14816 ft 354 kts 133°
2026-04-14 03:20 9.77155 123.01117 14353 ft 349 kts 123°
2026-04-14 03:20 9.75740 123.03140 13878 ft 348 kts 122°
2026-04-14 03:20 9.74364 123.05148 13419 ft 346 kts 122°
2026-04-14 03:20 9.72991 123.07147 12957 ft 344 kts 122°
2026-04-14 03:21 9.71637 123.09110 12504 ft 342 kts 122°
2026-04-14 03:21 9.70277 123.11076 12037 ft 341 kts 122°
2026-04-14 03:21 9.68916 123.13036 11581 ft 339 kts 122°
2026-04-14 03:21 9.67529 123.15030 11121 ft 337 kts 122°
2026-04-14 03:22 9.66197 123.16946 10675 ft 335 kts 122°
2026-04-14 03:22 9.64845 123.18884 10323 ft 329 kts 123°
2026-04-14 03:22 9.63548 123.20735 10152 ft 317 kts 123°
2026-04-14 03:22 9.62307 123.22508 10039 ft 304 kts 123°
2026-04-14 03:23 9.61103 123.24229 9870 ft 294 kts 122°
2026-04-14 03:23 9.59922 123.25924 9497 ft 293 kts 122°
2026-04-14 03:23 9.58728 123.27640 9122 ft 292 kts 122°
2026-04-14 03:23 9.57555 123.29326 8759 ft 291 kts 123°
2026-04-14 03:24 9.56389 123.31000 8399 ft 289 kts 122°
2026-04-14 03:24 9.55224 123.32672 8048 ft 287 kts 123°
2026-04-14 03:24 9.54068 123.34333 7691 ft 285 kts 123°
2026-04-14 03:24 9.52926 123.35970 7350 ft 284 kts 123°
2026-04-14 03:25 9.51789 123.37601 7012 ft 282 kts 123°
2026-04-14 03:25 9.50674 123.39202 6669 ft 280 kts 123°
2026-04-14 03:25 9.49541 123.40824 6324 ft 278 kts 123°
2026-04-14 03:25 9.48421 123.42432 5984 ft 277 kts 123°
2026-04-14 03:26 9.47321 123.44008 5667 ft 275 kts 123°
2026-04-14 03:26 9.46205 123.45605 5336 ft 274 kts 123°
2026-04-14 03:26 9.45114 123.47169 5004 ft 272 kts 123°
2026-04-14 03:26 9.44027 123.48726 4676 ft 271 kts 123°
2026-04-14 03:27 9.42940 123.50283 4350 ft 269 kts 123°
2026-04-14 03:27 9.41834 123.51831 4011 ft 268 kts 128°
2026-04-14 03:27 9.40337 123.52926 3645 ft 272 kts 161°
2026-04-14 03:27 9.38442 123.52988 3331 ft 272 kts 196°
2026-04-14 03:28 9.36762 123.52183 3294 ft 257 kts 209°
2026-04-14 03:28 9.35212 123.51302 3259 ft 242 kts 208°
2026-04-14 03:28 9.33715 123.50474 3229 ft 239 kts 208°
2026-04-14 03:28 9.32397 123.49482 3070 ft 234 kts 236°
2026-04-14 03:29 9.31925 123.47974 2925 ft 219 kts 275°
2026-04-14 03:29 9.32141 123.46481 2845 ft 214 kts 284°
2026-04-14 03:29 9.32408 123.44985 2734 ft 211 kts 280°
2026-04-14 03:29 9.32591 123.43539 2518 ft 203 kts 277°
2026-04-14 03:30 9.32717 123.42123 2168 ft 202 kts 276°
2026-04-14 03:30 9.32816 123.40719 1888 ft 192 kts 275°
2026-04-14 03:30 9.32896 123.39398 1607 ft 180 kts 274°
2026-04-14 03:30 9.32966 123.38180 1372 ft 168 kts 274°
2026-04-14 03:31 9.33030 123.37038 1118 ft 157 kts 275°
2026-04-14 03:31 9.33090 123.35969 933 ft 150 kts 275°
2026-04-14 03:31 9.33156 123.34911 670 ft 149 kts 272°
2026-04-14 03:31 9.33194 123.33851 528 ft 149 kts 272°
2026-04-14 03:32 9.33253 123.32804 374 ft 149 kts 277°
2026-04-14 03:32 9.33319 123.31756 212 ft 149 kts 277°
2026-04-14 03:32 9.33387 123.30708 66 ft 146 kts 274°
2026-04-14 03:32 9.33436 123.29864 60 ft 57 kts 274°
2026-04-14 03:33 9.33446 123.29668 60 ft 25 kts 266°
2026-04-14 03:33 9.33452 123.29516 60 ft 11 kts 252°
2026-04-14 03:33 9.33383 123.29517 60 ft 11 kts 159°
2026-04-14 03:33 9.33341 123.29536 60 ft 2 kts 141°
2026-04-14 03:34 9.33321 123.29552 60 ft 0 kts 145°